Regional Weather Roundup
Issued by NWS

Home | Current Version | Previous Version | Text Only | Print | Product List | Glossary On
Versions: 1 2 3 4 5 6 7 8 9 10 11 12 13 14 15 16 17 18 19 20 21 22 23 24 25 26 27 28 29 30 31 32 33 34 35 36 37 38 39 40 41 42 43 44 45 46 47 48 49 50
000
ASUS43 KLSX 230007
RWRMO

WEATHER SUMMARY FOR MISSOURI
NATIONAL WEATHER SERVICE SPRINGFIELD MO
600 PM CST MON DEC 22 2014

NOTE: "FAIR" INDICATES FEW OR NO CLOUDS BELOW 12,000 FEET WITH NO
       SIGNIFICANT WEATHER AND/OR OBSTRUCTIONS TO VISIBILITY.
       CURRENT SKY AND/OR WEATHER CONDITIONS ARE NOT AVAILABLE FOR
       CHILLICOTHE AND FARMINGTON.

MOZ001>031-035>038-043-044-053-054-230100-
...NORTHERN AND WESTERN MISSOURI...

CITY           SKY/WX    TMP DP  RH WIND       PRES   REMARKS
KANSAS CTY INT LGT RAIN  43  41  93 W12       29.47R
6HR MIN TEMP:  43; 6HR MAX TEMP:  47; 6HR PCP:  0.04;

KANSAS C DTWN  MOCLDY    46  40  79 W12       29.48R
6HR MIN TEMP:  45; 6HR MAX TEMP:  48; 6HR PCP: TRACE;

LEE`S SUMMIT   CLOUDY    45  40  82 W10       29.48R
6HR MIN TEMP:  44; 6HR MAX TEMP:  46; 6HR PCP:  0.03;

ST JOSEPH      LGT RAIN  44  41  89 W10       29.46R
6HR MIN TEMP:  44; 6HR MAX TEMP:  46; 6HR PCP:  0.06;

CHILLICOTHE      N/A     45  44  97 SE6       29.46R
6HR MIN TEMP:  43; 6HR MAX TEMP:  45; 6HR PCP:  0.16;

KIRKSVILLE     RAIN      43  43 100 SE8       29.47S FOG
6HR MIN TEMP:  40; 6HR MAX TEMP:  43; 6HR PCP:  0.09;


$$
MOZ066>068-077>081-088>096-101>105-230100-
...SOUTHWEST MISSOURI...

CITY           SKY/WX    TMP DP  RH WIND       PRES   REMARKS
SPRINGFIELD    LGT RAIN  49  47  93 SW9       29.52R FOG
6HR MIN TEMP:  47; 6HR MAX TEMP:  49; 6HR PCP:  0.04;

JOPLIN         MOCLDY    47  46  97 SW8       29.55R
6HR MIN TEMP:  47; 6HR MAX TEMP:  50; 6HR PCP:  0.07;


$$
MOZ032>034-039>042-045>050-055>058-069>072-230100-
...CENTRAL MISSOURI...

CITY           SKY/WX    TMP DP  RH WIND       PRES   REMARKS
COLUMBIA       LGT RAIN  47  46  97 S12       29.48S
6HR MIN TEMP:  45; 6HR MAX TEMP:  47; 6HR PCP:  0.18;

JEFFERSON CITY LGT RAIN  48  47  96 SE6       29.49S
6HR MIN TEMP:  46; 6HR MAX TEMP:  49; 6HR PCP:  0.07;

ROLLA          CLOUDY    47  46  97 S9        29.49S
6HR MIN TEMP:  45; 6HR MAX TEMP:  47; 6HR PCP:  0.14;

SEDALIA        LGT RAIN  48  46  93 SW8       29.48R
6HR MIN TEMP:  45; 6HR MAX TEMP:  48; 6HR PCP:  0.17;

WHITEMAN AFB   DRIZZLE   47  46  96 SW9       29.47R
WARRENSBURG    CLOUDY    45  45 100 SW7       29.47S
OSAGE BEACH    CLOUDY    48  45  87 S7        29.49R

$$
MOZ051-052-059>065-230100-
...EAST CENTRAL MISSOURI...

CITY           SKY/WX    TMP DP  RH WIND       PRES   REMARKS
ST LOUIS INTL  LGT RAIN  50  47  89 SE8       29.54F FOG
6HR MIN TEMP:  47; 6HR MAX TEMP:  50; 6HR PCP:  0.22;

SPIRIT OF STL  CLOUDY    48  47  96 CALM      29.52F FOG
6HR MIN TEMP:  46; 6HR MAX TEMP:  48; 6HR PCP:  0.17;

ST CHARLES     CLOUDY    46  46 100 E6        29.53F FOG
6HR MIN TEMP:  44; 6HR MAX TEMP:  47; 6HR PCP:  0.15;


$$
MOZ072>076-082>087-097>100-106>115-230100-
...SOUTH CENTRAL AND SOUTHEAST MISSOURI...

CITY           SKY/WX    TMP DP  RH WIND       PRES   REMARKS
CAPE GIRARDEAU LGT RAIN  53  52  96 S13       29.58F FOG
6HR MIN TEMP:  49; 6HR MAX TEMP:  53; 6HR PCP:  0.13;

FARMINGTON     CLOUDY    48  48 100 SE9       29.56S
6HR MIN TEMP:  46; 6HR MAX TEMP:  48; 6HR PCP:  0.11;

POPLAR BLUFF   CLOUDY    53  50  89 SW7       29.57S
6HR MIN TEMP:  50; 6HR MAX TEMP:  53; 6HR PCP:  0.07;

WEST PLAINS    LGT RAIN  50  47  89 S7        29.53F
6HR MIN TEMP:  47; 6HR MAX TEMP:  50; 6HR PCP:  0.06;


$$



USA.gov is the U.S. government's official web portal to all federal, state and local government web resources and services.